When you browse on this site, cookies collect data to enhance your experience and personalize the content and advertising you see.
Visit our Privacy Policy to learn more. By continuing to use the site, you agree to this use of cookies and data.
  • în România
  • Lista ţărilor
  • Pe 7 zile
  • Temperatura apei
  • Hartă satelitară
  • Meteo pe hartă
  • Widget-uri
  • user-avatar
    Intrare

    Meteo pe oră la Zamosc

    Astăzi, 25 Mai, Sâmbătă

    Timp Temperatura Precipitaţii Vânt Presiune Umiditate
    00:00 +13°C° 0 mm 2 m/s 732 mmHg 95%
    01:00 +12°C° 0 mm 2 m/s 731 mmHg 95%
    02:00 +12°C° 0 mm 2 m/s 731 mmHg 96%
    03:00 +12°C° 0 mm 2 m/s 731 mmHg 96%
    04:00 +12°C° 0 mm 2 m/s 731 mmHg 96%
    05:00 +12°C° 0 mm 2 m/s 731 mmHg 96%
    06:00 +13°C° 0 mm 2 m/s 732 mmHg 92%
    07:00 +14°C° 0 mm 3 m/s 732 mmHg 88%
    08:00 +16°C° 0 mm 3 m/s 732 mmHg 84%
    09:00 +17°C° 0.4 mm 4 m/s 732 mmHg 80%
    10:00 +18°C° 0.4 mm 4 m/s 732 mmHg 77%
    11:00 +19°C° 0.4 mm 4 m/s 732 mmHg 74%
    12:00 +19°C° 0.7 mm 4 m/s 732 mmHg 73%
    13:00 +20°C° 0.7 mm 4 m/s 732 mmHg 71%
    14:00 +20°C° 0.7 mm 4 m/s 732 mmHg 70%
    15:00 +20°C° 0.2 mm 4 m/s 732 mmHg 67%
    16:00 +20°C° 0.2 mm 4 m/s 732 mmHg 65%
    17:00 +21°C° 0.2 mm 4 m/s 732 mmHg 62%
    18:00 +19°C° 0 mm 3 m/s 732 mmHg 66%
    19:00 +18°C° 0 mm 2 m/s 732 mmHg 71%
    20:00 +16°C° 0 mm 1 m/s 732 mmHg 75%
    21:00 +15°C° 0 mm 1 m/s 732 mmHg 78%
    22:00 +14°C° 0 mm 2 m/s 732 mmHg 80%
    23:00 +13°C° 0 mm 2 m/s 733 mmHg 83%

    Mâine, 26 Mai, Duminică

    Timp Temperatura Precipitaţii Vânt Presiune Umiditate
    00:00 +13°C° 0 mm 2 m/s 733 mmHg 86%
    01:00 +13°C° 0 mm 2 m/s 733 mmHg 90%
    02:00 +12°C° 0 mm 2 m/s 733 mmHg 93%
    03:00 +12°C° 0 mm 2 m/s 733 mmHg 93%
    04:00 +10°C° 0 mm 2 m/s 733 mmHg 93%
    05:00 +11°C° 0 mm 1 m/s 733 mmHg 93%
    06:00 +13°C° 0 mm 2 m/s 733 mmHg 88%
    07:00 +15°C° 0 mm 2 m/s 734 mmHg 83%
    08:00 +16°C° 0 mm 2 m/s 734 mmHg 78%
    09:00 +17°C° 0.2 mm 2 m/s 734 mmHg 75%
    10:00 +19°C° 0.2 mm 3 m/s 734 mmHg 72%
    11:00 +20°C° 0.2 mm 3 m/s 734 mmHg 70%
    12:00 +20°C° 0.4 mm 3 m/s 734 mmHg 69%
    13:00 +21°C° 0.4 mm 4 m/s 734 mmHg 68%
    14:00 +21°C° 0.4 mm 4 m/s 734 mmHg 67%
    15:00 +21°C° 0.4 mm 4 m/s 733 mmHg 69%
    16:00 +21°C° 0.4 mm 4 m/s 733 mmHg 70%
    17:00 +21°C° 0.4 mm 4 m/s 733 mmHg 71%
    18:00 +19°C° 0.2 mm 3 m/s 733 mmHg 76%
    19:00 +18°C° 0.2 mm 2 m/s 733 mmHg 81%
    20:00 +17°C° 0.2 mm 2 m/s 733 mmHg 86%
    21:00 +16°C° 0.2 mm 2 m/s 733 mmHg 88%
    22:00 +15°C° 0.2 mm 2 m/s 733 mmHg 90%
    23:00 +15°C° 0.2 mm 2 m/s 733 mmHg 92%

    Poimâine, 27 Mai, Luni

    Timp Temperatura Precipitaţii Vânt Presiune Umiditate
    00:00 +14°C° 0 mm 2 m/s 733 mmHg 93%
    01:00 +14°C° 0 mm 2 m/s 733 mmHg 93%
    02:00 +14°C° 0 mm 2 m/s 733 mmHg 94%
    03:00 +14°C° 0 mm 2 m/s 733 mmHg 94%
    04:00 +13°C° 0 mm 2 m/s 733 mmHg 94%
    05:00 +13°C° 0 mm 2 m/s 733 mmHg 95%
    06:00 +15°C° 0 mm 2 m/s 733 mmHg 91%
    07:00 +17°C° 0 mm 3 m/s 733 mmHg 87%
    08:00 +18°C° 0 mm 3 m/s 733 mmHg 84%
    09:00 +20°C° 0.3 mm 3 m/s 733 mmHg 78%
    10:00 +21°C° 0.3 mm 3 m/s 733 mmHg 73%
    11:00 +22°C° 0.3 mm 4 m/s 733 mmHg 68%
    12:00 +23°C° 0.5 mm 4 m/s 733 mmHg 67%
    13:00 +23°C° 0.5 mm 4 m/s 733 mmHg 66%
    14:00 +25°C° 0.5 mm 5 m/s 733 mmHg 64%
    15:00 +25°C° 0.4 mm 4 m/s 733 mmHg 66%
    16:00 +25°C° 0.4 mm 4 m/s 732 mmHg 68%
    17:00 +23°C° 0.4 mm 4 m/s 732 mmHg 70%
    18:00 +22°C° 0.1 mm 3 m/s 732 mmHg 74%
    19:00 +21°C° 0.1 mm 3 m/s 732 mmHg 78%
    20:00 +19°C° 0.1 mm 2 m/s 732 mmHg 82%
    21:00 +19°C° 0 mm 2 m/s 732 mmHg 82%
    22:00 +19°C° 0 mm 1 m/s 732 mmHg 81%
    23:00 +19°C° 0 mm 1 m/s 732 mmHg 81%

    28 Mai, Marţi

    Timp Temperatura Precipitaţii Vânt Presiune Umiditate
    00:00 +18°C° 0 mm 2 m/s 732 mmHg 83%
    01:00 +17°C° 0 mm 2 m/s 732 mmHg 85%
    02:00 +17°C° 0 mm 3 m/s 731 mmHg 87%
    03:00 +17°C° 0 mm 3 m/s 731 mmHg 89%
    04:00 +17°C° 0 mm 3 m/s 731 mmHg 90%
    05:00 +16°C° 0 mm 3 m/s 730 mmHg 92%
    06:00 +18°C° 0 mm 4 m/s 730 mmHg 87%
    07:00 +20°C° 0 mm 4 m/s 730 mmHg 82%
    08:00 +21°C° 0 mm 5 m/s 730 mmHg 77%
    09:00 +22°C° 0.2 mm 5 m/s 730 mmHg 74%
    10:00 +23°C° 0.2 mm 5 m/s 730 mmHg 71%
    11:00 +25°C° 0.2 mm 5 m/s 730 mmHg 68%
    12:00 +25°C° 0.7 mm 5 m/s 729 mmHg 70%
    13:00 +23°C° 0.7 mm 4 m/s 729 mmHg 72%
    14:00 +23°C° 0.7 mm 4 m/s 728 mmHg 73%
    15:00 +23°C° 1.3 mm 4 m/s 728 mmHg 76%
    16:00 +22°C° 1.3 mm 3 m/s 728 mmHg 80%
    17:00 +22°C° 1.3 mm 3 m/s 727 mmHg 83%
    18:00 +21°C° 0.2 mm 2 m/s 727 mmHg 85%
    19:00 +20°C° 0.2 mm 2 m/s 727 mmHg 86%
    20:00 +19°C° 0.2 mm 2 m/s 727 mmHg 88%
    21:00 +19°C° 0 mm 2 m/s 727 mmHg 89%
    22:00 +18°C° 0 mm 2 m/s 726 mmHg 89%
    23:00 +18°C° 0 mm 2 m/s 726 mmHg 90%

    29 Mai, Miercuri

    Timp Temperatura Precipitaţii Vânt Presiune Umiditate
    00:00 +17°C° 0 mm 2 m/s 726 mmHg 90%
    01:00 +17°C° 0 mm 2 m/s 726 mmHg 91%
    02:00 +17°C° 0 mm 2 m/s 726 mmHg 92%
    03:00 +16°C° 0 mm 2 m/s 726 mmHg 92%
    04:00 +16°C° 0 mm 2 m/s 726 mmHg 93%
    05:00 +15°C° 0 mm 2 m/s 726 mmHg 93%
    06:00 +16°C° 0 mm 3 m/s 727 mmHg 91%
    07:00 +17°C° 0 mm 3 m/s 727 mmHg 89%
    08:00 +18°C° 0 mm 4 m/s 727 mmHg 86%
    09:00 +19°C° 0.2 mm 4 m/s 728 mmHg 83%
    10:00 +20°C° 0.2 mm 5 m/s 728 mmHg 81%
    11:00 +21°C° 0.2 mm 5 m/s 728 mmHg 78%
    12:00 +21°C° 0.1 mm 5 m/s 729 mmHg 76%
    13:00 +21°C° 0.1 mm 5 m/s 729 mmHg 75%
    14:00 +21°C° 0.1 mm 5 m/s 730 mmHg 73%
    15:00 +21°C° 0.3 mm 5 m/s 730 mmHg 75%
    16:00 +20°C° 0.3 mm 5 m/s 730 mmHg 78%
    17:00 +19°C° 0.3 mm 5 m/s 731 mmHg 80%
    18:00 +17°C° 0 mm 5 m/s 731 mmHg 82%
    19:00 +15°C° 0 mm 5 m/s 732 mmHg 84%
    20:00 +14°C° 0 mm 4 m/s 733 mmHg 86%
    21:00 +13°C° 0 mm 4 m/s 733 mmHg 86%
    22:00 +12°C° 0 mm 4 m/s 734 mmHg 86%
    23:00 +11°C° 0 mm 3 m/s 734 mmHg 86%

    30 Mai, Joi

    Timp Temperatura Precipitaţii Vânt Presiune Umiditate
    00:00 +11°C° 0.2 mm 3 m/s 734 mmHg 88%
    01:00 +10°C° 0.2 mm 3 m/s 735 mmHg 89%
    02:00 +10°C° 0.2 mm 3 m/s 735 mmHg 91%
    03:00 +9°C° 0.5 mm 3 m/s 735 mmHg 93%
    04:00 +9°C° 0.5 mm 3 m/s 736 mmHg 94%
    05:00 +9°C° 0.5 mm 3 m/s 736 mmHg 95%
    06:00 +9°C° 0.2 mm 3 m/s 737 mmHg 95%
    07:00 +9°C° 0.2 mm 3 m/s 737 mmHg 95%
    08:00 +7°C° 0.2 mm 4 m/s 738 mmHg 94%
    09:00 +8°C° 0 mm 4 m/s 738 mmHg 93%
    10:00 +8°C° 0 mm 4 m/s 739 mmHg 91%
    11:00 +10°C° 0 mm 4 m/s 739 mmHg 90%
    12:00 +10°C° 0 mm 3 m/s 739 mmHg 88%
    13:00 +11°C° 0 mm 3 m/s 739 mmHg 87%
    14:00 +11°C° 0 mm 3 m/s 739 mmHg 86%
    15:00 +11°C° 0 mm 3 m/s 739 mmHg 84%
    16:00 +12°C° 0 mm 3 m/s 739 mmHg 83%
    17:00 +12°C° 0 mm 3 m/s 739 mmHg 81%
    18:00 +13°C° 0 mm 2 m/s 739 mmHg 82%
    19:00 +12°C° 0 mm 2 m/s 739 mmHg 84%
    20:00 +12°C° 0 mm 1 m/s 739 mmHg 85%
    21:00 +12°C° 0 mm 1 m/s 739 mmHg 84%
    22:00 +12°C° 0 mm 1 m/s 739 mmHg 83%
    23:00 +11°C° 0 mm 1 m/s 739 mmHg 82%
    Arată mai mult